Hourly Weather Quito

Today, 30 September, Wednesday

Time Temperature Precipitation Wind Pressure Humidity
00:00 +18°C° 0.4 mm 2 mps 622 mmHg 79%
01:00 +17°C° 0.4 mm 2 mps 621 mmHg 83%
02:00 +17°C° 0 mm 2 mps 621 mmHg 82%
03:00 +18°C° 0 mm 2 mps 621 mmHg 81%
04:00 +19°C° 0 mm 1 mps 621 mmHg 80%
05:00 +19°C° 0.1 mm 1 mps 622 mmHg 76%
06:00 +19°C° 0.1 mm 2 mps 622 mmHg 72%
07:00 +20°C° 0.1 mm 2 mps 623 mmHg 68%
08:00 +24°C° 0 mm 2 mps 624 mmHg 57%
09:00 +27°C° 0 mm 2 mps 625 mmHg 45%
10:00 +31°C° 0 mm 1 mps 626 mmHg 34%
11:00 +31°C° 0 mm 2 mps 625 mmHg 32%
12:00 +31°C° 0 mm 2 mps 624 mmHg 30%
13:00 +31°C° 0 mm 3 mps 623 mmHg 28%
14:00 +30°C° 0.1 mm 3 mps 622 mmHg 33%
15:00 +28°C° 0.1 mm 3 mps 621 mmHg 38%
16:00 +27°C° 0.1 mm 4 mps 620 mmHg 43%
17:00 +25°C° 0.5 mm 3 mps 620 mmHg 53%
18:00 +21°C° 0.5 mm 2 mps 620 mmHg 62%
19:00 +20°C° 0.5 mm 1 mps 620 mmHg 72%
20:00 +19°C° 1 mm 2 mps 621 mmHg 74%
21:00 +18°C° 1 mm 3 mps 621 mmHg 76%
22:00 +17°C° 1 mm 5 mps 622 mmHg 79%
23:00 +18°C° 0.3 mm 4 mps 622 mmHg 81%

Tomorrow, 1 October, Thursday

Time Temperature Precipitation Wind Pressure Humidity
00:00 +17°C° 0.3 mm 2 mps 622 mmHg 82%
01:00 +18°C° 0.3 mm 1 mps 621 mmHg 84%
02:00 +17°C° 0.1 mm 2 mps 621 mmHg 84%
03:00 +17°C° 0.1 mm 2 mps 621 mmHg 83%
04:00 +18°C° 0.1 mm 2 mps 621 mmHg 82%
05:00 +18°C° 0 mm 3 mps 621 mmHg 80%
06:00 +18°C° 0 mm 3 mps 622 mmHg 78%
07:00 +18°C° 0 mm 4 mps 622 mmHg 75%
08:00 +21°C° 0 mm 3 mps 623 mmHg 64%
09:00 +25°C° 0 mm 2 mps 623 mmHg 52%
10:00 +27°C° 0 mm 2 mps 624 mmHg 40%
11:00 +29°C° 0 mm 2 mps 624 mmHg 36%
12:00 +30°C° 0 mm 2 mps 623 mmHg 32%
13:00 +31°C° 0 mm 2 mps 623 mmHg 28%
14:00 +30°C° 0 mm 2 mps 622 mmHg 29%
15:00 +29°C° 0 mm 2 mps 622 mmHg 30%
16:00 +29°C° 0 mm 3 mps 621 mmHg 31%
17:00 +27°C° 0 mm 2 mps 621 mmHg 37%
18:00 +25°C° 0 mm 2 mps 621 mmHg 44%
19:00 +23°C° 0 mm 2 mps 621 mmHg 50%
20:00 +22°C° 0 mm 1 mps 621 mmHg 51%
21:00 +21°C° 0 mm 1 mps 621 mmHg 53%
22:00 +21°C° 0 mm 1 mps 621 mmHg 54%
23:00 +20°C° 0 mm 1 mps 621 mmHg 57%

Day after tomorrow, 2 October, Friday

Time Temperature Precipitation Wind Pressure Humidity
00:00 +20°C° 0 mm 1 mps 621 mmHg 59%
01:00 +19°C° 0 mm 1 mps 621 mmHg 61%
02:00 +19°C° 0 mm 1 mps 621 mmHg 62%
03:00 +19°C° 0 mm 1 mps 621 mmHg 62%
04:00 +18°C° 0 mm 2 mps 621 mmHg 63%
05:00 +20°C° 0 mm 1 mps 622 mmHg 59%
06:00 +21°C° 0 mm 1 mps 623 mmHg 55%
07:00 +22°C° 0 mm 1 mps 624 mmHg 51%
08:00 +25°C° 0 mm 1 mps 624 mmHg 44%
09:00 +27°C° 0 mm 1 mps 625 mmHg 36%
10:00 +30°C° 0 mm 2 mps 625 mmHg 29%
11:00 +31°C° 0 mm 2 mps 624 mmHg 27%
12:00 +32°C° 0 mm 2 mps 624 mmHg 25%
13:00 +32°C° 0 mm 1 mps 623 mmHg 24%
14:00 +32°C° 0 mm 2 mps 623 mmHg 25%
15:00 +31°C° 0 mm 2 mps 622 mmHg 27%
16:00 +30°C° 0 mm 2 mps 622 mmHg 28%
17:00 +28°C° 0 mm 2 mps 622 mmHg 34%
18:00 +26°C° 0 mm 1 mps 622 mmHg 40%
19:00 +23°C° 0 mm 1 mps 621 mmHg 46%
20:00 +23°C° 0.2 mm 1 mps 621 mmHg 51%
21:00 +22°C° 0.2 mm 1 mps 621 mmHg 56%
22:00 +21°C° 0.2 mm 1 mps 621 mmHg 62%
23:00 +19°C° 0.4 mm 2 mps 621 mmHg 64%

3 October, Saturday

Time Temperature Precipitation Wind Pressure Humidity
00:00 +19°C° 0.4 mm 2 mps 621 mmHg 67%
01:00 +19°C° 0.4 mm 3 mps 621 mmHg 70%
02:00 +18°C° 0 mm 3 mps 621 mmHg 73%
03:00 +18°C° 0 mm 2 mps 621 mmHg 75%
04:00 +17°C° 0 mm 2 mps 621 mmHg 78%
05:00 +18°C° 0 mm 2 mps 622 mmHg 71%
06:00 +19°C° 0 mm 3 mps 622 mmHg 64%
07:00 +21°C° 0 mm 3 mps 623 mmHg 58%
08:00 +24°C° 0 mm 3 mps 624 mmHg 46%
09:00 +27°C° 0 mm 3 mps 625 mmHg 35%
10:00 +30°C° 0 mm 3 mps 625 mmHg 24%
11:00 +31°C° 0 mm 3 mps 625 mmHg 22%
12:00 +34°C° 0 mm 3 mps 624 mmHg 21%
13:00 +35°C° 0 mm 3 mps 624 mmHg 19%
14:00 +34°C° 0 mm 2 mps 624 mmHg 19%
15:00 +34°C° 0 mm 2 mps 623 mmHg 20%
16:00 +32°C° 0 mm 1 mps 623 mmHg 20%
17:00 +30°C° 0 mm 1 mps 622 mmHg 25%
18:00 +27°C° 0 mm 1 mps 622 mmHg 30%
19:00 +25°C° 0 mm 1 mps 622 mmHg 35%
20:00 +24°C° 0 mm 1 mps 622 mmHg 39%
21:00 +23°C° 0 mm 1 mps 622 mmHg 44%
22:00 +23°C° 0 mm 1 mps 622 mmHg 49%
23:00 +21°C° 0.1 mm 2 mps 622 mmHg 51%

4 October, Sunday

Time Temperature Precipitation Wind Pressure Humidity
00:00 +21°C° 0.1 mm 2 mps 622 mmHg 53%
01:00 +21°C° 0.1 mm 3 mps 622 mmHg 55%
02:00 +20°C° 0 mm 2 mps 622 mmHg 59%
03:00 +20°C° 0 mm 2 mps 622 mmHg 62%
04:00 +20°C° 0 mm 1 mps 621 mmHg 66%
05:00 +20°C° 0 mm 1 mps 622 mmHg 61%
06:00 +20°C° 0 mm 2 mps 623 mmHg 57%
07:00 +21°C° 0 mm 2 mps 623 mmHg 52%
08:00 +25°C° 0 mm 2 mps 624 mmHg 42%
09:00 +29°C° 0 mm 2 mps 625 mmHg 33%
10:00 +32°C° 0 mm 2 mps 626 mmHg 24%
11:00 +32°C° 0 mm 2 mps 625 mmHg 23%
12:00 +33°C° 0 mm 3 mps 624 mmHg 22%
13:00 +34°C° 0 mm 3 mps 623 mmHg 21%
14:00 +33°C° 0 mm 3 mps 623 mmHg 23%
15:00 +32°C° 0 mm 4 mps 622 mmHg 25%
16:00 +30°C° 0 mm 4 mps 622 mmHg 27%
17:00 +28°C° 0 mm 3 mps 622 mmHg 34%
18:00 +26°C° 0 mm 3 mps 622 mmHg 42%
19:00 +24°C° 0 mm 3 mps 622 mmHg 49%
20:00 +22°C° 0 mm 3 mps 623 mmHg 53%
21:00 +22°C° 0 mm 3 mps 623 mmHg 58%
22:00 +21°C° 0 mm 3 mps 623 mmHg 63%
23:00 +20°C° 0 mm 3 mps 622 mmHg 66%

5 October, Monday

Time Temperature Precipitation Wind Pressure Humidity
00:00 +19°C° 0 mm 3 mps 622 mmHg 70%
01:00 +19°C° 0 mm 3 mps 622 mmHg 73%
02:00 +19°C° 0 mm 2 mps 622 mmHg 73%
03:00 +18°C° 0 mm 2 mps 622 mmHg 73%
04:00 +18°C° 0 mm 2 mps 621 mmHg 73%
05:00 +19°C° 0 mm 2 mps 622 mmHg 68%
06:00 +21°C° 0 mm 2 mps 623 mmHg 63%
07:00 +23°C° 0 mm 2 mps 623 mmHg 59%
08:00 +27°C° 0 mm 2 mps 624 mmHg 47%
09:00 +31°C° 0 mm 1 mps 626 mmHg 36%
10:00 +35°C° 0 mm 1 mps 627 mmHg 25%
11:00 +34°C° 0 mm 1 mps 626 mmHg 24%
12:00 +34°C° 0 mm 2 mps 624 mmHg 23%
13:00 +34°C° 0 mm 3 mps 623 mmHg 22%
14:00 +32°C° 0 mm 2 mps 623 mmHg 23%
15:00 +32°C° 0 mm 2 mps 623 mmHg 24%
16:00 +31°C° 0 mm 2 mps 622 mmHg 25%
17:00 +29°C° 0 mm 2 mps 622 mmHg 29%
18:00 +27°C° 0 mm 1 mps 622 mmHg 33%
19:00 +25°C° 0 mm 1 mps 622 mmHg 37%
20:00 +24°C° 0 mm 1 mps 622 mmHg 41%
21:00 +24°C° 0 mm 2 mps 622 mmHg 46%
22:00 +23°C° 0 mm 2 mps 623 mmHg 50%
23:00 +21°C° 0 mm 2 mps 622 mmHg 54%
Show more

We Need Your Consent

Meteoprog and our Service Providers may store and access personal data such as cookies, device identifiers or other similar technologies on your device and process such data to personalise content and ads, as well as provide social media features and to analyse the traffic.

  • Store and/or access information on your device

    Cookies, device identifiers or other information can be stored or accessed on your device for the purposes indicated above.

  • Personalised ads and content, ad and content measurement, audience insights, and products development

    Ads and content can be personalised based on a profile. More data can be added to better personalise ads and content. Ad and content performance can be measured. Insights about the audience who saw the ads and content can be derived. Such data can be used to develop or improve user’s experience, systems and software.

By clicking ‘I Agree’ you will allow the use of indicated cookies, device identifiers, web beacons or other similar technologies. Your settings can be changed in the browser on your device.

For certain purposes, legitimate interests may be relied on, rather than consent. You can read more about this in our Privacy and Cookie Policy.